Track YAOGAN 17B now! 10-day predictions YAOGAN 17B is classified as:
1 39240U 13046B 24259.17508035 .00000101 00000-0 21439-3 0 9997 2 39240 63.3933 300.5143 0369459 8.6692 352.0485 13.45319023542278